Location: Olsztyn
(53.7767°N, 20.4765°E)
Time: 10:48:42
(UTC+02:00)

Vanguard 3 - Visible Passes

Search period start: 15 July 2024 00:00
Search period end: 25 July 2024 00:00
Orbit: 508 x 3231 km, 33.4° (Epoch: 14 July)

Date Brightness Start Highest point End Pass type
(mag) Time Alt. Az. Time Alt. Az. Time Alt. Az.
15 Jul 10.6 01:21:20 16° S 01:30:07 23° SE 01:43:14 10° ESE visible
15 Jul 10.6 03:26:47 10° SW 03:42:34 36° SSE 03:58:14 10° ESE visible
16 Jul 10.7 00:06:38 13° SSE 00:11:24 15° SE 00:19:46 10° ESE visible
16 Jul 10.6 02:10:45 14° SSW 02:22:46 31° SSE 02:38:04 10° ESE visible
17 Jul 10.5 00:56:01 17° S 01:03:29 23° SE 01:16:41 10° ESE visible
17 Jul 10.5 03:00:33 10° SW 03:15:48 36° SSE 03:31:59 10° ESE visible
17 Jul 10.6 23:41:14 13° SSE 23:44:55 15° SE 23:53:04 10° ESE visible
18 Jul 10.4 01:45:20 16° SSW 01:56:04 31° SSE 02:11:31 10° ESE visible
19 Jul 10.3 00:30:30 18° S 00:36:55 23° SE 00:49:53 10° ESE visible
19 Jul 10.4 02:34:37 10° SW 02:49:02 36° SSE 03:05:30 10° ESE visible
19 Jul 10.5 23:15:37 14° SE 23:18:29 14° SE 23:26:06 10° ESE visible
20 Jul 10.3 01:19:43 17° SSW 01:29:24 31° SSE 01:44:45 10° ESE visible
20 Jul 10.4 03:27:03 10° WSW 03:42:15 38° S 03:58:52 10° ESE visible
21 Jul 10.2 00:04:45 18° S 00:10:24 23° SE 00:22:54 10° ESE visible
21 Jul 10.3 02:08:50 11° SW 02:22:17 36° SSE 02:38:47 10° ESE visible
21 Jul 10.4 22:49:41 13° SE 22:52:09 14° SE 22:58:57 10° ESE visible
22 Jul 10.2 00:53:46 17° SSW 01:02:48 30° SSE 01:17:46 10° ESE visible
22 Jul 10.3 03:01:08 10° WSW 03:15:27 37° S 03:32:10 10° ESE visible
22 Jul 10.1 23:38:30 17° S 23:43:59 22° SE 23:55:44 10° ESE visible
23 Jul 10.2 01:42:57 10° SW 01:55:36 35° SSE 02:11:49 10° ESE visible
23 Jul 10.2 22:22:49 12° SSE 22:25:55 13° SE 22:31:38 10° ESE visible
24 Jul 10.1 00:26:49 13° SSW 00:36:18 29° SSE 00:50:37 10° ESE visible
24 Jul 10.2 02:35:23 10° WSW 02:48:42 36° S 03:05:15 10° SE visible
24 Jul 10.1 23:09:34 10° S 23:17:41 21° SE 23:28:28 10° ESE visible
